ASY456 NZOH-NZOH

Flight info

Callsign ASY456
Flight time N/A
Altitude 20000
Route OH DCT PM V242 DOGAD DCT PHOWD DCT PENCW DCT 412131S1744813E DCT NZWN DCT 411811S1744830E DCT BAXOV Q235 AVKEX Q169 KAPTI DCT OH
Aircraft F35/M-SADILOTUV/C

Departure

Time 2026-04-25 04:46
Airport RNZAF Base Ohakea (NZOH)

Arrival

Time N/A
Airport RNZAF Base Ohakea (NZOH)
Time Latitude Longitude Altitude Speed Heading
2026-04-25 04:25 -40.20288 175.38986 152 ft 0 kts 257°
2026-04-25 04:41 -40.20289 175.38969 152 ft 5 kts 277°
2026-04-25 04:41 -40.20269 175.38925 151 ft 7 kts 264°
2026-04-25 04:41 -40.20311 175.38902 151 ft 9 kts 170°
2026-04-25 04:42 -40.20395 175.38923 152 ft 15 kts 168°
2026-04-25 04:42 -40.20495 175.38962 152 ft 14 kts 134°
2026-04-25 04:42 -40.20531 175.39077 153 ft 13 kts 109°
2026-04-25 04:42 -40.20559 175.39186 153 ft 12 kts 108°
2026-04-25 04:43 -40.20584 175.39285 153 ft 11 kts 109°
2026-04-25 04:43 -40.20608 175.39375 153 ft 10 kts 109°
2026-04-25 04:43 -40.20632 175.39463 154 ft 12 kts 109°
2026-04-25 04:43 -40.20669 175.39604 154 ft 20 kts 108°
2026-04-25 04:44 -40.20722 175.39810 155 ft 28 kts 109°
2026-04-25 04:44 -40.20779 175.40004 155 ft 16 kts 132°
2026-04-25 04:44 -40.20872 175.39980 154 ft 15 kts 203°
2026-04-25 04:44 -40.20920 175.39924 153 ft 7 kts 289°
2026-04-25 04:45 -40.20919 175.39922 153 ft 0 kts 289°
2026-04-25 04:45 -40.20918 175.39919 153 ft 8 kts 289°
2026-04-25 04:45 -40.20689 175.39041 154 ft 202 kts 288°
2026-04-25 04:46 -40.20055 175.36596 485 ft 353 kts 284°
2026-04-25 04:46 -40.21286 175.34597 1804 ft 352 kts 160°
2026-04-25 04:46 -40.22525 175.37477 2597 ft 425 kts 107°
2026-04-25 04:46 -40.23391 175.41140 3599 ft 419 kts 107°
2026-04-25 04:47 -40.24389 175.44726 5468 ft 431 kts 112°
2026-04-25 04:47 -40.25598 175.48333 7694 ft 438 kts 117°
2026-04-25 04:47 -40.27035 175.51887 10112 ft 446 kts 121°
2026-04-25 04:47 -40.28624 175.55449 12614 ft 463 kts 122°
2026-04-25 04:48 -40.30321 175.59104 15011 ft 475 kts 127°